Toledo, OH

1:55 PM EDT on August 19, 2017 (GMT -0400)
Toledo Express

Weather History for KTOL - August, 2014

Change the Weather History Date:

Friday, August 1, 2014

  Actual Average Record
Temperature  
Mean Temperature 71 °F 73 °F  
Max Temperature 84 °F 83 °F 98 °F (1935)
Min Temperature 58 °F 62 °F 46 °F (1971)
Degree Days  
Heating Degree Days 0 0  
Month to date heating degree days 0 0  
Since 1 June heating degree days 25 38  
Since 1 July heating degree days 9 3  
Cooling Degree Days 6 8  
Month to date cooling degree days 6 8  
Year to date cooling degree days 396 496  
Since 1 June cooling degree days 334 443  
Growing Degree Days 20 (Base 50)    
Moisture  
Dew Point 60 °F    
Average Humidity 70    
Maximum Humidity 97    
Minimum Humidity 43    
Precipitation  
Precipitation 0.02 in 0.11 in 2.03 in (1965)
Month to date precipitation 0.02 0.11  
Year to date precipitation 18.68 20.28  
Snow  
Snow 0.00 in 0.00 in - ()
Month to date snowfall 0.0 0.0  
Since 1 June snowfall 0.0 0.0  
Since 1 July snowfall 0.0 0.0  
Snow Depth 0.00 in    
Sea Level Pressure  
Sea Level Pressure 30.08 in    
Wind  
Wind Speed 3 mph (West)    
Max Wind Speed 17 mph    
Max Gust Speed 22 mph    
Visibility 7 miles    
Events Rain , Thunderstorm    
T = Trace of Precipitation, MM = Missing Value Source: NWS Daily Summary

Daily Weather History Graph

Daily Weather History Graph

Search for Another Location

Airport or City:

Trip Planner

Search our weather history database for the weather conditions in past years. The results will help you decide how hot, cold, wet, or windy it might be!

Date:

Astronomy

Aug. 01, 2014 Rise Set
Actual Time 6:29 AM EDT 8:52 PM EDT
Civil Twilight 5:58 AM EDT 9:23 PM EDT
Nautical Twilight 5:19 AM EDT 10:02 PM EDT
Astronomical Twilight 4:36 AM EDT 10:45 PM EDT
Moon 11:57 AM EDT (8/1) 11:31 PM EDT (8/1)
Length of Visible Light 15h 25m
Length of Day
14h 23m
Waxing Crescent, 27% of the Moon is Illuminated
Aug 1
Waxing Crescent
Aug 3
First Quarter
Aug 10
Full
Aug 17
Last Quarter
Aug 25
New

Hourly Weather History & Observations

Time (EDT) Temp. Heat Index Dew Point Humidity Pressure Visibility Wind Dir Wind Speed Gust Speed Precip Events Conditions
12:52 AM 62.6 °F - 59.0 °F 88% 30.07 in 10.0 mi Calm Calm - N/A   Clear
1:52 AM 61.0 °F - 59.0 °F 93% 30.06 in 9.0 mi Calm Calm - N/A   Scattered Clouds
2:52 AM 61.0 °F - 57.9 °F 90% 30.05 in 9.0 mi Calm Calm - N/A   Clear
3:52 AM 60.1 °F - 59.0 °F 96% 30.05 in 6.0 mi Calm Calm - N/A   Mostly Cloudy
4:52 AM 59.0 °F - 57.9 °F 96% 30.06 in 5.0 mi Calm Calm - N/A   Partly Cloudy
5:52 AM 59.0 °F - 57.9 °F 96% 30.06 in 5.0 mi Calm Calm - N/A   Scattered Clouds
6:52 AM 61.0 °F - 59.0 °F 93% 30.09 in 6.0 mi SSW 3.5 mph - N/A   Mostly Cloudy
7:52 AM 62.6 °F - 60.8 °F 94% 30.11 in 7.0 mi West 4.6 mph - N/A   Clear
8:52 AM 68.0 °F - 61.0 °F 78% 30.11 in 8.0 mi WSW 4.6 mph - N/A   Clear
9:52 AM 73.0 °F - 62.1 °F 68% 30.11 in 7.0 mi WSW 6.9 mph - N/A   Clear
10:52 AM 75.9 °F - 63.0 °F 64% 30.11 in 9.0 mi WSW 5.8 mph - N/A   Scattered Clouds
11:52 AM 79.0 °F - 62.1 °F 56% 30.11 in 9.0 mi WSW 8.1 mph - N/A   Scattered Clouds
12:52 PM 80.1 °F 81.1 °F 61.0 °F 52% 30.10 in 9.0 mi WNW 6.9 mph - N/A   Partly Cloudy
1:52 PM 82.0 °F 82.4 °F 60.1 °F 47% 30.09 in 10.0 mi SSW 8.1 mph - N/A   Scattered Clouds
2:52 PM 82.9 °F 82.8 °F 59.0 °F 44% 30.07 in 9.0 mi Variable 6.9 mph - N/A   Partly Cloudy
3:52 PM 82.9 °F 82.6 °F 57.9 °F 42% 30.08 in 8.0 mi NW 9.2 mph - N/A   Partly Cloudy
4:52 PM 80.1 °F 80.6 °F 57.9 °F 47% 30.06 in 8.0 mi Calm Calm - N/A   Clear
5:52 PM 80.1 °F 80.7 °F 59.0 °F 48% 30.06 in 8.0 mi North 4.6 mph - N/A Thunderstorm Clear
6:30 PM 73.4 °F - 55.4 °F 53% 30.07 in 6.0 mi WNW 8.1 mph - N/A   Haze
6:42 PM 73.4 °F - 60.8 °F 65% 30.08 in 4.0 mi NW 6.9 mph - N/A Rain , Thunderstorm Rain
6:52 PM 73.0 °F - 61.0 °F 66% 30.07 in 4.0 mi NW 4.6 mph - 0.01 in Rain Light Rain
7:52 PM 72.0 °F - 66.0 °F 81% 30.07 in 6.0 mi Calm Calm - 0.01 in   Haze
8:52 PM 68.0 °F - 64.9 °F 90% 30.08 in 5.0 mi Calm Calm - N/A   Mostly Cloudy
9:52 PM 68.0 °F - 61.0 °F 78% 30.09 in 6.0 mi Calm Calm - N/A   Haze
10:52 PM 68.0 °F - 62.1 °F 81% 30.09 in 6.0 mi Calm Calm - N/A   Haze
11:52 PM 66.0 °F - 61.0 °F 84% 30.09 in 6.0 mi Calm Calm - N/A   Haze